Location: Wellington Court
(33.5931°N, 112.1993°W)
Time: 06:41:02
(UTC+00:00)

Daily predictions for brighter satellites

Satellite Brightness Start Highest point End
(mag) Time Altitude Azimuth Time Altitude Azimuth Time Altitude Azimuth
Cosmos 2278 Rocket 2.4 12:07:17 50° WSW 12:07:17 50° WSW 12:12:18 10° S
Cosmos 1943 Rocket 2.6 12:09:39 41° SW 12:09:39 41° SW 12:13:53 10° S
Cosmos 407 Rocket 3.6 12:13:59 48° WSW 12:13:59 48° WSW 12:18:29 10° S
USA 229 DEB 3.2 12:11:09 15° SSW 12:15:57 87° WNW 12:22:15 10° NNE
USA 229 3.2 12:11:16 14° SSW 12:16:09 88° WNW 12:22:27 10° NNE
BREEZE-M DEB (TANK) 4.0 12:16:53 23° S 12:17:52 29° SE 12:19:57 10° ENE
Cosmos 2016 Rocket 4.0 12:11:42 10° NNW 12:17:56 60° W 12:24:05 10° S
Cosmos 2369 Rocket 4.4 12:14:05 10° N 12:18:30 23° ENE 12:22:55 10° ESE
Cosmos 1782 Rocket 3.4 12:19:10 55° NW 12:19:50 65° W 12:24:06 10° S
USA-17 4.4 12:23:33 70° SW 12:23:33 70° SW 12:27:27 10° SSE
Cosmos 1371 Rocket 4.1 12:21:33 29° SW 12:23:57 50° WNW 12:29:08 10° N
IRS-1D 3.4 12:19:25 10° NNE 12:24:21 83° ESE 12:29:17 10° SSW
Cosmos 1932 4.5 12:21:09 27° NW 12:24:53 67° WSW 12:31:17 10° SSE
Cosmos 1869 3.7 12:21:46 11° N 12:24:58 51° E 12:28:23 10° SSE
USA 267 4.0 12:21:05 10° NNE 12:26:42 32° NW 12:28:15 28° WNW
Iridium 4 Rocket 3.2 12:27:17 46° WSW 12:27:17 46° WSW 12:30:54 10° SSW
Cosmos 1300 Rocket 3.8 12:28:08 43° WSW 12:28:08 43° WSW 12:31:48 10° SSW
Cosmos 1812 4.1 12:26:25 10° NNE 12:28:59 28° E 12:31:32 10° SE
Cosmos 371 Rocket 3.9 12:24:52 10° N 12:29:38 57° ENE 12:34:21 10° SSE
FengYun 1-2 T 4.2 12:27:21 10° N 12:32:52 61° WNW 12:38:23 10° SSW
ATLAS 3B R/B 2.9 12:29:27 10° SW 12:36:44 65° WNW 12:44:30 10° NNE
Cosmos 304 Rocket 4.0 12:32:18 10° NNW 12:37:03 71° ENE 12:41:48 10° SSE
CZ-4 R/B 3.7 12:33:32 10° N 12:38:19 79° WNW 12:43:00 10° SSW
Cosmos 1110 Rocket 4.1 12:34:37 10° SSW 12:39:53 80° ESE 12:45:11 10° NNE
Cosmos 1378 Rocket 3.5 12:36:23 10° S 12:40:38 81° E 12:44:54 10° N
Delta 142 4.2 12:39:24 24° SW 12:41:18 41° S 12:45:10 10° ESE
Meteor 1-21 Rocket 4.2 12:35:48 10° S 12:41:35 86° W 12:47:17 10° N
Cosmos 2242 Rocket 3.6 12:40:47 10° SSW 12:45:01 51° W 12:49:20 10° N
CENTAUR R/B 4.4 12:38:09 10° NNW 12:46:17 43° NE 12:55:08 10° ESE
OAO 1 4.5 12:45:04 24° W 12:48:26 82° N 12:53:54 10° E
NOAA 12 4.1 12:47:42 10° N 12:52:59 64° WNW 12:58:12 10° SSW
Cosmos 1656 Rocket 3.7 12:48:37 10° NNW 12:54:19 87° WSW 12:59:57 10° SSE
In-Cosmos 22 Rocket 4.4 12:49:54 10° SSW 12:55:34 53° W 13:01:14 10° N
USA 234 3.9 12:52:41 10° ESE 12:59:00 54° NE 13:05:21 10° NNW
Cosmos 2251 Rocket 4.3 12:59:21 12° NW 13:03:38 32° W 13:08:18 10° SSW
SL-16 R/B 3.0 13:01:42 10° WSW 13:06:34 29° WNW 13:11:29 10° N
IGS 5A 4.3 13:04:49 10° NNE 13:08:44 51° E 13:12:37 10° S
Cosmos 1891 Rocket 4.4 13:04:07 10° N 13:10:22 70° W 13:16:27 10° S
Cosmos 1452 Rocket 3.4 13:08:19 10° SSW 13:13:30 67° WNW 13:18:43 10° N
Aureole 3 Rocket 4.4 13:17:28 10° NNW 13:23:13 52° W 13:31:00 10° SSW
ARIANE 5 R/B 4.4 13:20:15 10° NNE 13:24:56 36° E 13:29:38 10° SSE
Cosmos 1850 Rocket 4.4 13:20:40 10° N 13:25:48 66° ENE 13:30:56 10° SSE
Cosmos 1331 Rocket 4.5 13:22:12 10° SW 13:27:02 37° WNW 13:31:54 10° N
Hubble Space Telescope 3.3 13:27:40 10° SSW 13:29:57 15° SSE 13:32:14 10° ESE
SKYMED 2 4.4 13:28:13 10° SSW 13:32:01 30° W 13:35:51 10° NW
Cosmos 1464 Rocket 3.9 13:26:39 10° N 13:32:46 75° W 13:38:50 10° S
COSMO-SKYMED 1 2.9 13:29:10 10° S 13:33:03 41° W 13:36:57 10° NNW
Okean 2 Rocket 3.0 13:29:38 10° N 13:34:00 77° W 13:38:22 10° S
